Location: Herm
(49.4830°N, 2.4500°W)
Time: 20:48:34
(UTC+00:00)

VELOX 1 - Pass Details

Date: 02 November 2021
Orbit: 627 x 641 km, 98.3° (Epoch: 03 December)

Event Time Altitude Azimuth Distance (km) Brightness Sun altitude
Rises 18:32:17 0° 360° (N) 2,958 ? -17.6°
Reaches altitude 10° 18:35:26 10° 335° (NNW) 2,045 ? -18.1°
Maximum altitude 18:37:45 14° 304° (NW) 1,780 ? -18.5°
Drops below altitude 10° 18:40:03 10° 272° (W) 2,040 ? -18.9°
Sets 18:43:11 0° 248° (WSW) 2,945 ? -19.4°
